Location: Fort Worth, Tx
(32.7431°N, 97.3695°W)
Time: 05:48:17
(UTC-05:00)

Altair - Pass Details

Date: 03 October 2023
Orbit: 1501 x 1682 km, 47.2° (Epoch: 06 December)

Event Time Altitude Azimuth Distance (km) Brightness Sun altitude
Rises 09:43:39 0° 307° (NW) 4,896 9.6 15.5°
Reaches altitude 10° 09:46:49 10° 309° (NW) 3,922 9.1 16.1°
Maximum altitude 09:56:57 74° 35° (NE) 1,735 8.2 18.1°
Drops below altitude 10° 10:07:05 10° 120° (ESE) 3,922 11.6 20.2°
Sets 10:10:14 0° 122° (ESE) 4,895 11.6 20.8°
